Hourly Data Report for October 03, 2017

All times are specified in Local Standard Time (LST). Add 1 hour to adjust for Daylight Saving Time where and when it is observed.

QUESNEL
BRITISH COLUMBIA

53°01'34.000" N
122°30'37.000" W
545.00 m
1096629
71192
YQZ

Download Data

Hourly Data (October 2017)
Hourly Data Report for October 3, 2017
Temp Definition
°C
Dew Point Temp Definition
°C
Rel Hum Definition
%
Wind Dir Definition
10's deg

Wind Spd Definition
km/h
Visibility Definition
km
Stn Press Definition
kPa
Hmdx Definition


Wind Chill Definition


Weather Definition


TIME
00:00 Legend Double Dagger -2.6 -3.7 92   0 16.1 96.61     LegendNANA
01:00 Legend Double Dagger -3.1 -4.3 92 LegendMM 4 16.1 96.63   -5 LegendNANA
02:00 Legend Double Dagger -3.0 -4.0 93   0 16.1 96.64     LegendNANA
03:00 Legend Double Dagger -3.6 -4.3 95   0 16.1 96.63     LegendNANA
04:00 Legend Double Dagger -2.8 -3.2 97   0 2.4 96.66     Fog
05:00 Legend Double Dagger -3.1 -3.5 97   0 1.0 96.69     Fog
06:00 Legend Double Dagger -3.5 -4.1 96   0 11.3 96.65     LegendNANA
07:00 Legend Double Dagger -2.8 -3.4 96 LegendMM 4 14.5 96.62   -4 LegendNANA
08:00 Legend Double Dagger -1.9 -2.2 98 LegendMM 4 2.4 96.68   -3 Fog
09:00 Legend Double Dagger -0.6 -1.3 95 LegendMM 4 9.7 96.73   -2 Fog
10:00 Legend Double Dagger 1.4 -0.7 86 LegendMM 4 16.1 96.69     LegendNANA
11:00 Legend Double Dagger 4.7 -0.2 70 LegendMM 5 16.1 96.58     LegendNANA
12:00 Legend Double Dagger 7.8 -0.1 57 20 8 16.1 96.50     LegendNANA
13:00 Legend Double Dagger 10.3 -0.3 48 17 8 16.1 96.43     LegendNANA
14:00 Legend Double Dagger 11.5 -2.7 37 19 5 16.1 96.36     LegendNANA
15:00 Legend Double Dagger 12.2 -2.2 37 LegendMM 4 16.1 96.33     LegendNANA
16:00 Legend Double Dagger 12.5 -2.4 35   0 16.1 96.28     LegendNANA
17:00 Legend Double Dagger 10.2 -0.8 46   0 16.1 96.24     LegendNANA
18:00 Legend Double Dagger 6.1 1.1 70   0 16.1 96.24     LegendNANA
19:00 Legend Double Dagger 4.4 0.5 76   0 16.1 96.27     LegendNANA
20:00 Legend Double Dagger 2.0 -0.5 84 2 4 16.1 96.29     LegendNANA
21:00 Legend Double Dagger 0.8 -1.1 87   0 16.1 96.31     LegendNANA
22:00 Legend Double Dagger 0.6 -1.1 88   0 16.1 96.32     LegendNANA
23:00 Legend Double Dagger -0.1 -1.5 90   0 16.1 96.31     LegendNANA

Notes on Data Quality.

Legend

  • E = Estimated
  • M = Missing
  • NA = Not Available
  • ‡ = Partner data that is not subject to review by the National Climate Archives
Date modified: